| time (UTC) | temp F | wind direction | speed MPH | gust MPH | rain 1hr in | rain 24hr in | rain mn in | humidity % | barometer mb |
| 20260510103516 | 52 | 0.0 | 2.0 | 0.00 | 0.14 | 0.00 | 87 | 1010.6 | |
| 20260510102516 | 52 | 0.0 | 1.0 | 0.00 | 0.14 | 0.00 | 86 | 1010.4 | |
| 20260510101516 | 52 | 0.0 | 0.0 | 0.00 | 0.14 | 0.00 | 86 | 1010.3 | |
| 20260510100516 | 52 | 0.0 | 2.0 | 0.00 | 0.14 | 0.00 | 86 | 1010.0 | |
| 20260510095516 | 52 | 0.0 | 2.0 | 0.00 | 0.14 | 0.00 | 86 | 1009.8 | |
| 20260510094516 | 52 | 0.0 | 2.0 | 0.00 | 0.14 | 0.00 | 87 | 1009.7 | |
| 20260510093516 | 52 | 0.0 | 2.0 | 0.00 | 0.14 | 0.00 | 87 | 1009.7 | |
| 20260510092516 | 52 | 0.0 | 2.0 | 0.00 | 0.14 | 0.00 | 87 | 1010.0 | |
| 20260510091516 | 52 | 270 | 1.0 | 3.0 | 0.00 | 0.14 | 0.00 | 87 | 1009.8 |
| 20260510090536 | 52 | 0.0 | 2.0 | 0.00 | 0.14 | 0.00 | 86 | 1009.8 | |
| 20260510085516 | 52 | 0.0 | 2.0 | 0.00 | 0.14 | 0.00 | 86 | 1009.8 | |
| 20260510084516 | 52 | 0.0 | 3.0 | 0.00 | 0.14 | 0.00 | 86 | 1009.8 | |
| 20260510083516 | 52 | 0.0 | 0.0 | 0.00 | 0.14 | 0.00 | 86 | 1009.9 | |
| 20260510082516 | 52 | 0.0 | 0.0 | 0.00 | 0.14 | 0.00 | 87 | 1010.1 | |
| 20260510081516 | 52 | 0.0 | 0.0 | 0.00 | 0.14 | 0.00 | 86 | 1010.3 | |
| 20260510080516 | 52 | 0.0 | 0.0 | 0.00 | 0.14 | 0.00 | 86 | 1010.3 | |
| 20260510075516 | 52 | 0.0 | 1.0 | 0.00 | 0.14 | 0.00 | 86 | 1010.3 | |
| 20260510074516 | 52 | 0.0 | 2.0 | 0.00 | 0.14 | 0.00 | 87 | 1010.4 | |
| 20260510073536 | 52 | 45 | 1.0 | 3.0 | 0.00 | 0.14 | 0.00 | 86 | 1010.3 |
| 20260510072516 | 52 | 23 | 1.0 | 3.0 | 0.00 | 0.14 | 0.00 | 86 | 1010.5 |
| 20260510071516 | 52 | 225 | 2.0 | 6.0 | 0.00 | 0.14 | 0.00 | 86 | 1010.3 |
| 20260510070516 | 52 | 0.0 | 2.0 | 0.00 | 0.14 | 0.00 | 86 | 1009.6 | |
| 20260510065516 | 52 | 0.0 | 0.0 | 0.00 | 0.14 | 0.00 | 86 | 1009.6 | |
| 20260510064516 | 52 | 0.0 | 0.0 | 0.00 | 0.14 | 0.00 | 86 | 1009.7 | |
| 20260510063516 | 52 | 0.0 | 0.0 | 0.00 | 0.14 | 0.00 | 86 | 1009.8 | |
| 20260510062516 | 52 | 0.0 | 0.0 | 0.00 | 0.14 | 0.00 | 87 | 1009.9 | |
| 20260510061516 | 52 | 0.0 | 0.0 | 0.00 | 0.14 | 0.00 | 87 | 1010.0 | |
| 20260510060516 | 52 | 0.0 | 1.0 | 0.00 | 0.14 | 0.00 | 87 | 1010.0 | |
| 20260510055516 | 52 | 0.0 | 1.0 | 0.00 | 0.14 | 0.00 | 87 | 1010.2 | |
| 20260510054516 | 52 | 0.0 | 0.0 | 0.00 | 0.14 | 0.00 | 86 | 1010.0 | |
| 20260510053536 | 51 | 0.0 | 0.0 | 0.00 | 0.14 | 0.00 | 87 | 1009.7 | |
| 20260510052536 | 51 | 0.0 | 1.0 | 0.00 | 0.14 | 0.00 | 87 | 1009.6 | |
| 20260510051516 | 49 | 0.0 | 0.0 | 0.00 | 0.14 | 0.00 | 87 | 1009.6 | |
| 20260510050516 | 49 | 0.0 | 0.0 | 0.00 | 0.14 | 0.00 | 87 | 1009.6 | |
| 20260510045516 | 49 | 0.0 | 0.0 | 0.00 | 0.14 | 0.00 | 87 | 1009.7 | |
| 20260510044516 | 48 | 0.0 | 0.0 | 0.00 | 0.14 | 0.00 | 88 | 1009.6 | |
| 20260510043515 | 48 | 0.0 | 0.0 | 0.00 | 0.14 | 0.00 | 88 | 1009.7 | |
| 20260510042516 | 48 | 0.0 | 0.0 | 0.00 | 0.14 | 0.00 | 88 | 1009.7 | |
| 20260510041516 | 49 | 0.0 | 0.0 | 0.00 | 0.14 | 0.00 | 88 | 1009.7 | |
| 20260510040515 | 49 | 0.0 | 0.0 | 0.00 | 0.14 | 0.00 | 88 | 1009.7 | |
| 20260510035516 | 49 | 0.0 | 0.0 | 0.00 | 0.14 | 0.14 | 88 | 1009.7 | |
| 20260510034536 | 49 | 0.0 | 0.0 | 0.00 | 0.14 | 0.14 | 88 | 1009.7 | |
| 20260510033516 | 50 | 0.0 | 0.0 | 0.00 | 0.14 | 0.14 | 88 | 1009.6 | |
| 20260510032556 | 50 | 0.0 | 0.0 | 0.00 | 0.14 | 0.14 | 88 | 1009.5 | |
| 20260510031516 | 51 | 0.0 | 0.0 | 0.00 | 0.14 | 0.14 | 88 | 1009.5 | |
| 20260510030516 | 51 | 0.0 | 0.0 | 0.00 | 0.14 | 0.14 | 88 | 1009.4 | |
| 20260510025516 | 51 | 0.0 | 0.0 | 0.00 | 0.14 | 0.14 | 87 | 1009.4 | |
| 20260510024516 | 52 | 0.0 | 0.0 | 0.00 | 0.14 | 0.14 | 88 | 1009.3 | |
| 20260510023516 | 52 | 0.0 | 0.0 | 0.00 | 0.14 | 0.14 | 88 | 1009.3 | |
| 20260510022516 | 52 | 0.0 | 1.0 | 0.00 | 0.14 | 0.14 | 87 | 1009.2 | |
| 20260510021516 | 53 | 0.0 | 0.0 | 0.00 | 0.14 | 0.14 | 87 | 1009.2 | |
| 20260510020656 | 53 | 0.0 | 1.0 | 0.00 | 0.14 | 0.14 | 87 | 1009.2 | |
| 20260510015516 | 54 | 0.0 | 2.0 | 0.00 | 0.14 | 0.14 | 87 | 1009.2 | |
| 20260510014516 | 54 | 0.0 | 3.0 | 0.00 | 0.14 | 0.14 | 87 | 1009.2 | |
| 20260510013516 | 54 | 225 | 1.0 | 3.0 | 0.00 | 0.14 | 0.14 | 87 | 1009.2 |
| 20260510012516 | 54 | 0.0 | 1.0 | 0.00 | 0.14 | 0.14 | 87 | 1009.2 | |
| 20260510011516 | 54 | 0.0 | 1.0 | 0.00 | 0.14 | 0.14 | 87 | 1009.1 | |
| 20260510010516 | 54 | 0.0 | 1.0 | 0.00 | 0.14 | 0.14 | 87 | 1008.9 | |
| 20260510005516 | 54 | 0.0 | 1.0 | 0.00 | 0.14 | 0.14 | 87 | 1008.8 | |
| 20260510004516 | 55 | 0.0 | 2.0 | 0.00 | 0.14 | 0.14 | 87 | 1008.8 | |
| 20260510003516 | 55 | 0.0 | 2.0 | 0.00 | 0.14 | 0.14 | 86 | 1008.5 | |
| 20260510002556 | 55 | 0.0 | 2.0 | 0.00 | 0.14 | 0.14 | 86 | 1008.5 | |
| 20260510001536 | 56 | 0.0 | 0.0 | 0.00 | 0.14 | 0.14 | 85 | 1008.4 | |
| 20260510000516 | 56 | 0.0 | 1.0 | 0.00 | 0.14 | 0.14 | 85 | 1008.2 | |
| 20260509235516 | 57 | 0.0 | 2.0 | 0.00 | 0.14 | 0.14 | 85 | 1008.1 | |
| 20260509234516 | 57 | 0.0 | 1.0 | 0.00 | 0.14 | 0.14 | 84 | 1008.2 | |
| 20260509233516 | 57 | 225 | 1.0 | 3.0 | 0.00 | 0.14 | 0.14 | 84 | 1008.2 |
| 20260509232516 | 58 | 0.0 | 0.0 | 0.00 | 0.14 | 0.14 | 83 | 1008.1 | |
| 20260509231516 | 58 | 0.0 | 1.0 | 0.00 | 0.14 | 0.14 | 83 | 1008.1 | |
| 20260509230516 | 58 | 248 | 1.0 | 3.0 | 0.00 | 0.14 | 0.14 | 82 | 1008.0 |
| 20260509225536 | 59 | 0.0 | 3.0 | 0.00 | 0.14 | 0.14 | 82 | 1007.9 | |
| 20260509224516 | 59 | 225 | 1.0 | 3.0 | 0.00 | 0.14 | 0.14 | 81 | 1008.0 |
| 20260509223515 | 59 | 203 | 2.0 | 5.0 | 0.00 | 0.14 | 0.14 | 81 | 1008.2 |
| 20260509222536 | 59 | 248 | 1.0 | 3.0 | 0.00 | 0.14 | 0.14 | 83 | 1008.3 |
| 20260509221516 | 58 | 203 | 2.0 | 6.0 | 0.00 | 0.14 | 0.14 | 82 | 1008.3 |
| 20260509220516 | 58 | 270 | 2.0 | 3.0 | 0.00 | 0.14 | 0.14 | 82 | 1008.3 |
| 20260509215516 | 59 | 248 | 2.0 | 3.0 | 0.00 | 0.14 | 0.14 | 81 | 1008.2 |
| 20260509214536 | 60 | 248 | 2.0 | 3.0 | 0.00 | 0.14 | 0.14 | 81 | 1008.3 |
| 20260509213515 | 59 | 225 | 1.0 | 4.0 | 0.00 | 0.14 | 0.14 | 83 | 1008.2 |
| 20260509212515 | 57 | 293 | 2.0 | 4.0 | 0.00 | 0.14 | 0.14 | 84 | 1008.2 |
| 20260509211515 | 57 | 293 | 1.0 | 3.0 | 0.00 | 0.14 | 0.14 | 84 | 1008.6 |
| 20260509210516 | 57 | 270 | 2.0 | 4.0 | 0.00 | 0.14 | 0.14 | 84 | 1008.7 |
| 20260509205536 | 57 | 248 | 3.0 | 6.0 | 0.00 | 0.14 | 0.14 | 84 | 1008.7 |
| 20260509204515 | 57 | 270 | 2.0 | 4.0 | 0.00 | 0.14 | 0.14 | 84 | 1008.8 |
| 20260509203515 | 57 | 270 | 2.0 | 3.0 | 0.00 | 0.14 | 0.14 | 85 | 1008.6 |
| 20260509202515 | 57 | 270 | 2.0 | 4.0 | 0.01 | 0.14 | 0.14 | 85 | 1008.6 |
| 20260509201515 | 56 | 248 | 1.0 | 2.0 | 0.02 | 0.14 | 0.14 | 85 | 1008.6 |
| 20260509200536 | 56 | 248 | 1.0 | 3.0 | 0.02 | 0.14 | 0.14 | 86 | 1008.6 |
| 20260509195556 | 56 | 270 | 2.0 | 3.0 | 0.02 | 0.14 | 0.14 | 86 | 1008.9 |
| 20260509194515 | 56 | 135 | 1.0 | 2.0 | 0.03 | 0.14 | 0.14 | 86 | 1009.0 |
| 20260509193515 | 55 | 0.0 | 1.0 | 0.03 | 0.14 | 0.14 | 87 | 1009.1 | |
| 20260509192515 | 55 | 203 | 1.0 | 4.0 | 0.03 | 0.13 | 0.13 | 86 | 1009.5 |
| 20260509191535 | 56 | 203 | 2.0 | 4.0 | 0.02 | 0.12 | 0.12 | 86 | 1009.8 |
| 20260509190515 | 56 | 248 | 2.0 | 3.0 | 0.02 | 0.12 | 0.12 | 86 | 1010.1 |
| 20260509185515 | 56 | 270 | 1.0 | 4.0 | 0.02 | 0.12 | 0.12 | 86 | 1009.8 |
| 20260509184515 | 56 | 270 | 2.0 | 4.0 | 0.02 | 0.11 | 0.11 | 85 | 1010.1 |
| 20260509183535 | 56 | 270 | 2.0 | 4.0 | 0.03 | 0.11 | 0.11 | 86 | 1010.1 |
| 20260509182515 | 56 | 270 | 3.0 | 5.0 | 0.04 | 0.10 | 0.10 | 85 | 1010.1 |
| 20260509181517 | 56 | 248 | 3.0 | 5.0 | 0.06 | 0.10 | 0.10 | 85 | 1010.1 |
| 20260509180517 | 57 | 270 | 2.0 | 5.0 | 0.08 | 0.10 | 0.10 | 86 | 1010.0 |
| 20260509175517 | 57 | 270 | 1.0 | 3.0 | 0.08 | 0.10 | 0.10 | 86 | 1010.0 |
| 20260509174517 | 57 | 293 | 1.0 | 3.0 | 0.08 | 0.09 | 0.09 | 86 | 1010.0 |
| 20260509173517 | 57 | 0.0 | 0.0 | 0.07 | 0.08 | 0.08 | 86 | 1009.7 | |
| 20260509172537 | 57 | 0.0 | 2.0 | 0.06 | 0.06 | 0.06 | 85 | 1009.9 | |
| 20260509171517 | 57 | 248 | 2.0 | 5.0 | 0.04 | 0.04 | 0.04 | 85 | 1010.2 |
| 20260509170517 | 58 | 270 | 3.0 | 5.0 | 0.02 | 0.02 | 0.02 | 85 | 1010.2 |
| 20260509165517 | 58 | 270 | 3.0 | 6.0 | 0.02 | 0.02 | 0.02 | 84 | 1010.1 |
| 20260509164517 | 58 | 270 | 4.0 | 9.0 | 0.01 | 0.01 | 0.01 | 84 | 1010.0 |
| 20260509163517 | 58 | 248 | 3.0 | 6.0 | 0.01 | 0.01 | 0.01 | 84 | 1010.1 |
| 20260509162517 | 58 | 270 | 3.0 | 6.0 | 0.00 | 0.00 | 0.00 | 83 | 1010.2 |
| 20260509161517 | 58 | 270 | 3.0 | 7.0 | 0.00 | 0.00 | 0.00 | 83 | 1010.2 |
| 20260509160537 | 58 | 270 | 4.0 | 6.0 | 0.00 | 0.00 | 0.00 | 83 | 1010.3 |
| 20260509155517 | 58 | 225 | 2.0 | 6.0 | 0.00 | 0.00 | 0.00 | 84 | 1010.3 |
| 20260509154517 | 58 | 203 | 1.0 | 3.0 | 0.00 | 0.00 | 0.00 | 84 | 1010.3 |
| 20260509153537 | 58 | 225 | 2.0 | 4.0 | 0.00 | 0.00 | 0.00 | 84 | 1010.4 |
| 20260509152517 | 58 | 248 | 2.0 | 3.0 | 0.00 | 0.00 | 0.00 | 83 | 1010.3 |
| 20260509151517 | 58 | 225 | 1.0 | 4.0 | 0.00 | 0.00 | 0.00 | 82 | 1010.2 |
| 20260509150517 | 58 | 0.0 | 1.0 | 0.00 | 0.00 | 0.00 | 82 | 1010.1 | |
| 20260509145517 | 58 | 225 | 1.0 | 2.0 | 0.00 | 0.00 | 0.00 | 82 | 1010.5 |
| 20260509144517 | 58 | 248 | 1.0 | 3.0 | 0.00 | 0.00 | 0.00 | 81 | 1010.4 |
| 20260509143517 | 57 | 248 | 1.0 | 3.0 | 0.00 | 0.00 | 0.00 | 81 | 1010.4 |
| 20260509142537 | 57 | 225 | 2.0 | 5.0 | 0.00 | 0.00 | 0.00 | 80 | 1010.4 |
| 20260509141517 | 57 | 270 | 1.0 | 3.0 | 0.00 | 0.00 | 0.00 | 81 | 1010.4 |
| 20260509140517 | 57 | 225 | 2.0 | 5.0 | 0.00 | 0.00 | 0.00 | 80 | 1010.2 |
| 20260509135517 | 57 | 248 | 1.0 | 3.0 | 0.00 | 0.00 | 0.00 | 80 | 1010.2 |
| 20260509134537 | 57 | 225 | 1.0 | 4.0 | 0.00 | 0.00 | 0.00 | 79 | 1010.0 |
| 20260509133517 | 57 | 225 | 2.0 | 5.0 | 0.00 | 0.00 | 0.00 | 80 | 1010.1 |
| 20260509132637 | 57 | 270 | 1.0 | 3.0 | 0.00 | 0.00 | 0.00 | 80 | 1010.1 |
| 20260509131517 | 56 | 225 | 2.0 | 4.0 | 0.00 | 0.00 | 0.00 | 79 | 1010.3 |
| 20260509130516 | 56 | 68 | 1.0 | 4.0 | 0.00 | 0.00 | 0.00 | 79 | 1010.3 |
| 20260509125517 | 56 | 225 | 1.0 | 2.0 | 0.00 | 0.00 | 0.00 | 80 | 1010.4 |
| 20260509124517 | 55 | 0.0 | 1.0 | 0.00 | 0.00 | 0.00 | 80 | 1010.4 | |
| 20260509123516 | 55 | 0.0 | 2.0 | 0.00 | 0.00 | 0.00 | 79 | 1010.4 | |
| 20260509122517 | 54 | 0.0 | 2.0 | 0.00 | 0.00 | 0.00 | 80 | 1010.5 | |
| 20260509121517 | 54 | 0.0 | 1.0 | 0.00 | 0.00 | 0.00 | 81 | 1010.4 | |
| 20260509120517 | 54 | 0.0 | 3.0 | 0.00 | 0.00 | 0.00 | 81 | 1010.4 | |
| 20260509115517 | 53 | 0.0 | 2.0 | 0.00 | 0.00 | 0.00 | 82 | 1010.3 | |
| 20260509114516 | 52 | 0.0 | 1.0 | 0.00 | 0.00 | 0.00 | 83 | 1010.2 | |
| 20260509113537 | 52 | 0.0 | 1.0 | 0.00 | 0.00 | 0.00 | 85 | 1010.3 | |
| 20260509112517 | 51 | 0.0 | 0.0 | 0.00 | 0.00 | 0.00 | 85 | 1010.3 | |
| 20260509111516 | 51 | 0.0 | 2.0 | 0.00 | 0.00 | 0.00 | 85 | 1010.1 | |
| 20260509110517 | 51 | 0.0 | 1.0 | 0.00 | 0.00 | 0.00 | 85 | 1010.1 | |
| 20260509105516 | 51 | 68 | 1.0 | 2.0 | 0.00 | 0.00 | 0.00 | 85 | 1010.0 |
| 20260509104516 | 51 | 68 | 1.0 | 3.0 | 0.00 | 0.00 | 0.00 | 85 | 1009.9 |